Weather History for Bishop, CA

Change the Weather History Date:

Friday, February 22, 2013

  Actual Average Record
Temperature  
Mean Temperature 41 °F 44 °F  
Max Temperature 62 °F 60 °F 75 °F (2012)
Min Temperature 20 °F 28 °F 14 °F (1953)
Degree Days  
Heating Degree Days 24 21  
Month to date heating degree days 515 515  
Since 1 July heating degree days 3057 3084  
Cooling Degree Days 0 0  
Month to date cooling degree days 0 0  
Year to date cooling degree days 0 0  
Moisture  
Dew Point 7 °F    
Average Humidity 28    
Maximum Humidity 45    
Minimum Humidity 11    
Precipitation  
Precipitation 0.00 in 0.04 in 0.92 in (1944)
Month to date precipitation 0.00 0.67  
Year to date precipitation T 1.72  
Snow  
Snow 0.00 in 0.00 in 7.00 in (1944)
Month to date snowfall 0.0 0.1  
Since 1 July snowfall 2.8 5.9  
Snow Depth 0.00 in    
Sea Level Pressure  
Sea Level Pressure 30.08 in    
Wind  
Wind Speed 6 mph (WNW)    
Max Wind Speed 18 mph    
Max Gust Speed 23 mph    
Visibility 10 miles    
Events      
T = Trace of Precipitation, MM = Missing Value Source: NWS Daily Summary

Daily Weather History Graph

Daily Weather History Graph

Search for Another Location

Airport:

Trip Planner

Search our weather history database for the weather conditions in past years. The results will help you decide how hot, cold, wet, or windy it might be!

Date:

Astronomy

Feb. 22, 2013 Rise Set
Actual Time 6:33 AM PST 5:40 PM PST
Civil Twilight 6:07 AM PST 6:07 PM PST
Nautical Twilight 5:36 AM PST 6:37 PM PST
Astronomical Twilight 5:06 AM PST 7:07 PM PST
Moon 2:59 PM PST (2/22) 4:19 AM PST (2/22)
Length of Visible Light 12h 00m
Length of Day
11h 07m
Waxing Gibbous, 91% of the Moon is Illuminated
Feb 22
Waxing Gibbous
Feb 25
Full
Mar 4
Last Quarter
Mar 11
New
Mar 19
First Quarter

Hourly Weather History & Observations

Time (PST) Temp. Windchill Dew Point Humidity Pressure Visibility Wind Dir Wind Speed Gust Speed Precip Events Conditions
12:56 AM 27.0 °F 19.5 °F 5.0 °F 39% 30.09 in 10.0 mi NNW 6.9 mph - N/A   Clear
1:56 AM 25.0 °F 17.1 °F 5.0 °F 43% 30.09 in 10.0 mi NNW 6.9 mph - N/A   Clear
2:56 AM 28.9 °F 20.4 °F 6.1 °F 38% 30.06 in 10.0 mi WNW 9.2 mph - N/A   Clear
3:56 AM 25.0 °F 16.3 °F 3.9 °F 41% 30.06 in 10.0 mi NW 8.1 mph - N/A   Clear
4:56 AM 26.1 °F 18.4 °F 3.9 °F 39% 30.09 in 10.0 mi NW 6.9 mph - N/A   Clear
5:56 AM 24.1 °F 18.2 °F 3.9 °F 42% 30.12 in 10.0 mi SW 4.6 mph - N/A   Clear
6:56 AM 23.0 °F - 5.0 °F 46% 30.15 in 10.0 mi Calm Calm - N/A   Clear
7:56 AM 33.1 °F - 7.0 °F 34% 30.17 in 10.0 mi Calm Calm - N/A   Clear
8:56 AM 41.0 °F - 7.0 °F 25% 30.17 in 10.0 mi Calm Calm - N/A   Clear
9:56 AM 45.0 °F 43.5 °F 7.0 °F 21% 30.14 in 10.0 mi SW 3.5 mph - N/A   Clear
10:56 AM 48.9 °F - 8.1 °F 19% 30.14 in 10.0 mi Variable 3.5 mph - N/A   Clear
11:56 AM 54.0 °F - 10.9 °F 18% 30.09 in 10.0 mi Variable 3.5 mph - N/A   Clear
12:56 PM 57.0 °F - 12.0 °F 17% 30.07 in 10.0 mi Variable 4.6 mph - N/A   Clear
1:56 PM 59.0 °F - 12.0 °F 16% 30.04 in 10.0 mi Variable 3.5 mph - N/A   Clear
2:56 PM 62.1 °F - 9.0 °F 12% 30.01 in 10.0 mi North 16.1 mph 20.7 mph N/A   Clear
3:56 PM 61.0 °F - 7.0 °F 12% 30.01 in 10.0 mi North 15.0 mph 23.0 mph N/A   Clear
4:56 PM 59.0 °F - 7.0 °F 13% 30.00 in 10.0 mi North 8.1 mph - N/A   Clear
5:56 PM 48.9 °F - 6.1 °F 18% 30.06 in 10.0 mi NW 6.9 mph - N/A   Clear
6:56 PM 48.0 °F - 9.0 °F 21% 30.08 in 10.0 mi South 6.9 mph - N/A   Mostly Cloudy
7:56 PM 46.0 °F 40.6 °F 8.1 °F 21% 30.07 in 10.0 mi South 11.5 mph - N/A   Mostly Cloudy
8:56 PM 44.1 °F 38.6 °F 9.0 °F 24% 30.06 in 10.0 mi South 10.4 mph - N/A   Clear
9:56 PM 43.0 °F 38.2 °F 9.0 °F 25% 30.07 in 10.0 mi South 8.1 mph - N/A   Clear
10:56 PM 39.0 °F 34.8 °F 8.1 °F 28% 30.06 in 10.0 mi SSW 5.8 mph - N/A   Clear
11:56 PM 34.0 °F - 7.0 °F 32% 30.05 in 10.0 mi Calm Calm - N/A   Clear